Location: Bailleul
(50.3375°N, 2.8513°E)
Time: 09:13:45
(UTC+00:00)

Cosmos 1459 Rocket - Pass Details

Date: 16 June 2021
Orbit: 937 x 999 km, 83.0° (Epoch: 03 August)

Event Time Altitude Azimuth Distance (km) Brightness Sun altitude
Rises 20:59:40 0° 351° (N) 3,618 8.2 -7.3°
Reaches altitude 10° 21:02:11 10° 354° (N) 2,665 7.3 -7.5°
Maximum altitude 21:08:15 72° 78° (ENE) 988 4.0 -8.1°
Drops below altitude 10° 21:14:17 10° 163° (SSE) 2,649 5.7 -8.7°
Enters shadow 21:14:33 - 164° (SSE) 2,753 5.8 -8.7°
